Weather History for Miles City, MT

Change the Weather History Date:

Wednesday, December 25, 2013

  Actual Average Record
Temperature  
Mean Temperature 29 °F 19 °F  
Max Temperature 35 °F 29 °F 53 °F (1963)
Min Temperature 22 °F 8 °F -32 °F (1983)
Degree Days  
Heating Degree Days 36 46  
Month to date heating degree days 1361 1106  
Since 1 July heating degree days 3068 2905  
Cooling Degree Days 0 0  
Month to date cooling degree days 0 0  
Year to date cooling degree days 877 730  
Moisture  
Dew Point 20 °F    
Average Humidity 72    
Maximum Humidity 84    
Minimum Humidity 59    
Precipitation  
Precipitation 0.00 in 0.01 in 0.16 in (1965)
Month to date precipitation 0.59 0.22  
Year to date precipitation 17.09 12.37  
Sea Level Pressure  
Sea Level Pressure 30.24 in    
Wind  
Wind Speed 7 mph (WSW)    
Max Wind Speed 18 mph    
Max Gust Speed 20 mph    
Visibility 10 miles    
Events      
T = Trace of Precipitation, MM = Missing Value Source: NWS Daily Summary

Daily Weather History Graph

Daily Weather History Graph

Search for Another Location

Airport:

Trip Planner

Search our weather history database for the weather conditions in past years. The results will help you decide how hot, cold, wet, or windy it might be!

Date:

Astronomy

Dec. 25, 2013 Rise Set
Actual Time 7:45 AM MST 4:21 PM MST
Civil Twilight 7:10 AM MST 4:56 PM MST
Nautical Twilight 6:32 AM MST 5:35 PM MST
Astronomical Twilight 5:55 AM MST 6:11 PM MST
Moon No Moon Rise 11:44 AM MST (12/25)
Length of Visible Light 9h 45m
Length of Day
8h 35m
Waning Gibbous, 48% of the Moon is Illuminated
Dec 25
Waning Gibbous
Jan 1
New
Jan 7
First Quarter
Jan 15
Full
Jan 23
Last Quarter

Hourly Weather History & Observations

Time (MST) Temp. Windchill Dew Point Humidity Pressure Visibility Wind Dir Wind Speed Gust Speed Precip Events Conditions
12:53 AM 30.9 °F 21.7 °F 24.1 °F 76% 30.31 in 10.0 mi North 11.5 mph - N/A   Overcast
1:53 AM 30.9 °F 22.2 °F 23.0 °F 72% 30.32 in 10.0 mi WNW 10.4 mph - N/A   Overcast
2:53 AM 30.0 °F 21.1 °F 24.1 °F 79% 30.35 in 10.0 mi WNW 10.4 mph - N/A   Overcast
3:53 AM 30.0 °F 22.4 °F 24.1 °F 79% 30.35 in 10.0 mi WNW 8.1 mph - N/A   Overcast
4:53 AM 28.9 °F 21.1 °F 23.0 °F 78% 30.35 in 10.0 mi WNW 8.1 mph - N/A   Overcast
5:53 AM 28.9 °F 19.8 °F 21.9 °F 75% 30.36 in 10.0 mi WNW 10.4 mph - N/A   Overcast
6:53 AM 27.0 °F 18.0 °F 21.0 °F 78% 30.36 in 10.0 mi WNW 9.2 mph - N/A   Mostly Cloudy
7:53 AM 25.0 °F 14.8 °F 19.9 °F 81% 30.36 in 10.0 mi West 10.4 mph - N/A   Overcast
8:53 AM 21.9 °F 12.5 °F 17.1 °F 82% 30.38 in 10.0 mi West 8.1 mph - N/A   Clear
9:53 AM 23.0 °F 15.8 °F 18.0 °F 81% 30.38 in 10.0 mi WSW 5.8 mph - N/A   Clear
10:53 AM 25.0 °F 18.1 °F 19.0 °F 78% 30.35 in 10.0 mi WSW 5.8 mph - N/A   Clear
11:53 AM 28.0 °F 20.0 °F 19.9 °F 72% 30.31 in 10.0 mi SW 8.1 mph - N/A   Clear
12:53 PM 28.9 °F 21.1 °F 21.0 °F 72% 30.27 in 10.0 mi SSW 8.1 mph - N/A   Clear
1:53 PM 30.0 °F 25.2 °F 21.0 °F 69% 30.22 in 10.0 mi SSE 4.6 mph - N/A   Clear
2:53 PM 33.1 °F - 21.0 °F 61% 30.19 in 10.0 mi Calm Calm - N/A   Clear
3:53 PM 32.0 °F 28.7 °F 19.9 °F 61% 30.17 in 10.0 mi South 3.5 mph - N/A   Clear
4:53 PM 30.0 °F 25.2 °F 19.0 °F 64% 30.15 in 10.0 mi SSW 4.6 mph - N/A   Clear
5:53 PM 27.0 °F - 18.0 °F 69% 30.13 in 10.0 mi Calm Calm - N/A   Clear
6:53 PM 27.0 °F 20.5 °F 18.0 °F 69% 30.11 in 10.0 mi SW 5.8 mph - N/A   Clear
7:53 PM 26.1 °F 18.4 °F 16.0 °F 66% 30.10 in 10.0 mi WSW 6.9 mph - N/A   Clear
8:53 PM 26.1 °F - 16.0 °F 66% 30.09 in 10.0 mi Calm Calm - N/A   Overcast
9:53 PM 28.9 °F 21.1 °F 19.0 °F 67% 30.09 in 10.0 mi WSW 8.1 mph - N/A   Overcast
10:53 PM 28.9 °F 25.2 °F 19.9 °F 69% 30.08 in 10.0 mi WSW 3.5 mph - N/A   Mostly Cloudy
11:53 PM 34.0 °F 26.0 °F 23.0 °F 64% 30.08 in 10.0 mi West 10.4 mph - N/A   Overcast